sat.trackr.live / text

‹ back to catalog

STARLINK-32725

NORAD 62505 · 2025-003U

PAYLOAD ACTIVE UNKNOWN

§ Identity

Operator
Country
US
Launch date
2025-01-06
Launch site
AFETR
Launch vehicle
Mass (kg)
RCS (m²)

Purposes: comms

External: N2YO · Heavens-Above · Gunter

§ Orbital elements

Epoch: 2026-05-24T21:54:28.455840Z

Period
94.27 min
Inclination
43.0016°
Eccentricity
0.0001582
Mean motion
15.27586045 rev/d
Perigee alt
481.9 km
Apogee alt
484.1 km
Semi-major
6,861.2 km
B*
3.8799e-4
RAAN
218.0750°
Arg perigee
268.8346°
Mean anomaly
91.2325°
Rev number
7,821

§ Raw data

STARLINK-327251 62505U 25003U   26144.91282935  .00010432  00000+0  38799-3 0  99922 62505  43.0016 218.0750 0001582 268.8346  91.2325 15.27586045 78213

JSON: /api/v1/satellites/62505 · /tle

For live sub-satellite position, see the globe view (requires WebGL).

§ Visibility from observer

Set your observer location to see the next 7 days of passes ≥ 10°. The values pass through the URL so the page stays shareable.

No JS? Fill the form by hand. The geolocation button needs JavaScript.